| time (UTC) | temp F | wind direction | speed MPH | gust MPH | rain 1hr in | rain 24hr in | rain mn in | humidity % | barometer mb |
| 20260506231312 | 37 | 0 | 0.0 | 0.0 | 5.64 | 0.00 | 0.00 | 59 | 1022.6 |
| 20260506230812 | 39 | 0 | 0.0 | 0.0 | 5.64 | 0.00 | 0.00 | 60 | 1022.5 |
| 20260506230312 | 40 | 0 | 0.0 | 0.0 | 5.64 | 0.00 | 0.00 | 59 | 1022.3 |
| 20260506225812 | 41 | 0 | 0.0 | 0.0 | 5.64 | 0.00 | 0.00 | 58 | 1022.2 |
| 20260506225312 | 41 | 0 | 0.0 | 0.0 | 5.64 | 0.00 | 0.00 | 59 | 1022.5 |
| 20260506224812 | 41 | 0 | 0.0 | 0.0 | 5.64 | 0.00 | 0.00 | 58 | 1022.5 |
| 20260506224312 | 41 | 0 | 0.0 | 0.0 | 5.64 | 0.00 | 0.00 | 58 | 1022.3 |
| 20260506223812 | 41 | 0 | 0.0 | 0.0 | 5.64 | 0.00 | 0.00 | 59 | 1022.3 |
| 20260506223312 | 41 | 0 | 0.0 | 0.0 | 5.64 | 0.00 | 0.00 | 59 | 1022.2 |
| 20260506222812 | 41 | 359 | 0.0 | 3.0 | 5.64 | 0.00 | 0.00 | 60 | 1022.3 |
| 20260506222312 | 41 | 0 | 0.0 | 0.0 | 5.64 | 0.00 | 0.00 | 59 | 1022.2 |
| 20260506221812 | 41 | 0 | 0.0 | 0.0 | 5.64 | 0.00 | 0.00 | 61 | 1022.2 |
| 20260506221313 | 41 | 0 | 0.0 | 0.0 | 5.64 | 0.00 | 0.00 | 59 | 1022.2 |
| 20260506220812 | 41 | 0 | 0.0 | 0.0 | 5.64 | 0.00 | 0.00 | 60 | 1022.0 |
| 20260506220312 | 41 | 0 | 0.0 | 0.0 | 5.64 | 0.00 | 0.00 | 61 | 1022.1 |
| 20260506215813 | 41 | 0 | 0.0 | 0.0 | 5.64 | 0.00 | 0.00 | 60 | 1021.9 |
| 20260506215312 | 41 | 285 | 0.0 | 2.0 | 5.64 | 0.00 | 0.00 | 59 | 1021.9 |
| 20260506214813 | 42 | 285 | 1.0 | 5.0 | 5.64 | 0.00 | 0.00 | 58 | 1021.9 |
| 20260506214414 | 42 | 0 | 0.0 | 0.0 | 5.64 | 0.00 | 0.00 | 60 | 1021.7 |
| 20260506214312 | 42 | 0 | 0.0 | 0.0 | 5.64 | 0.00 | 0.00 | 60 | 1021.7 |
| 20260506213812 | 42 | 0 | 0.0 | 0.0 | 5.64 | 0.00 | 0.00 | 60 | 1021.5 |
| 20260506213312 | 42 | 285 | 0.0 | 4.0 | 5.64 | 0.00 | 0.00 | 60 | 1021.5 |
| 20260506212812 | 42 | 326 | 1.0 | 6.0 | 5.64 | 0.00 | 0.00 | 60 | 1021.5 |
| 20260506212312 | 42 | 0 | 0.0 | 0.0 | 5.64 | 0.00 | 0.00 | 59 | 1021.5 |
| 20260506211812 | 42 | 0 | 0.0 | 0.0 | 5.64 | 0.00 | 0.00 | 59 | 1021.6 |
| 20260506211312 | 42 | 359 | 0.0 | 2.0 | 5.64 | 0.00 | 0.00 | 62 | 1021.5 |
| 20260506210812 | 42 | 347 | 0.0 | 2.0 | 5.64 | 0.00 | 0.00 | 58 | 1021.4 |
| 20260506210312 | 43 | 347 | 1.0 | 3.0 | 5.64 | 0.00 | 0.00 | 59 | 1021.2 |
| 20260506205813 | 42 | 0 | 0.0 | 0.0 | 5.64 | 0.00 | 0.00 | 61 | 1021.2 |
| 20260506205312 | 42 | 0 | 0.0 | 0.0 | 5.64 | 0.00 | 0.00 | 64 | 1021.2 |
| 20260506204812 | 42 | 304 | 1.0 | 8.0 | 5.64 | 0.00 | 0.00 | 64 | 1021.3 |
| 20260506204312 | 42 | 359 | 0.0 | 3.0 | 5.64 | 0.00 | 0.00 | 61 | 1021.2 |
| 20260506203812 | 42 | 359 | 1.0 | 4.0 | 5.64 | 0.00 | 0.00 | 63 | 1021.2 |
| 20260506203312 | 42 | 359 | 1.0 | 4.0 | 5.64 | 0.00 | 0.00 | 63 | 1021.2 |
| 20260506202812 | 42 | 359 | 1.0 | 4.0 | 5.64 | 0.00 | 0.00 | 64 | 1021.3 |
| 20260506202312 | 42 | 359 | 0.0 | 3.0 | 5.64 | 0.00 | 0.00 | 64 | 1021.2 |
| 20260506201812 | 42 | 359 | 0.0 | 1.0 | 5.64 | 0.00 | 0.00 | 65 | 1021.2 |
| 20260506201312 | 42 | 359 | 1.0 | 3.0 | 5.64 | 0.00 | 0.00 | 64 | 1021.2 |
| 20260506200812 | 42 | 0 | 0.0 | 0.0 | 5.64 | 0.00 | 0.00 | 65 | 1021.3 |
| 20260506200312 | 42 | 359 | 0.0 | 2.0 | 5.64 | 0.00 | 0.00 | 66 | 1021.2 |
| 20260506195813 | 42 | 359 | 1.0 | 2.0 | 5.64 | 0.00 | 0.00 | 66 | 1021.1 |
| 20260506195313 | 42 | 359 | 0.0 | 2.0 | 5.64 | 0.00 | 0.00 | 63 | 1021.1 |
| 20260506194812 | 43 | 0 | 0.0 | 0.0 | 5.64 | 0.00 | 0.00 | 64 | 1021.2 |
| 20260506194312 | 43 | 0 | 0.0 | 0.0 | 5.64 | 0.00 | 0.00 | 63 | 1021.1 |
| 20260506193812 | 43 | 0 | 0.0 | 0.0 | 5.64 | 0.00 | 0.00 | 65 | 1021.2 |
| 20260506193312 | 43 | 0 | 0.0 | 0.0 | 5.64 | 0.00 | 0.00 | 66 | 1021.2 |
| 20260506192812 | 43 | 0 | 0.0 | 0.0 | 5.64 | 0.00 | 0.00 | 65 | 1021.3 |
| 20260506192312 | 43 | 0 | 0.0 | 0.0 | 5.64 | 0.00 | 0.00 | 63 | 1021.2 |
| 20260506191812 | 43 | 301 | 0.0 | 3.0 | 5.64 | 0.00 | 0.00 | 63 | 1021.2 |
| 20260506191312 | 43 | 312 | 13.0 | 16.0 | 5.64 | 0.00 | 0.00 | 64 | 1021.1 |
| 20260506190812 | 43 | 359 | 16.0 | 23.0 | 5.64 | 0.00 | 0.00 | 61 | 1021.3 |
| 20260506190312 | 43 | 115 | 16.0 | 20.0 | 5.64 | 0.00 | 0.00 | 64 | 1021.2 |
| 20260506185812 | 43 | 295 | 14.0 | 18.0 | 5.64 | 0.00 | 0.00 | 65 | 1021.1 |
| 20260506185313 | 43 | 325 | 1.0 | 4.0 | 5.64 | 0.00 | 0.00 | 65 | 1021.1 |
| 20260506184812 | 43 | 7 | 13.0 | 22.0 | 5.64 | 0.00 | 0.00 | 65 | 1020.9 |
| 20260506184312 | 43 | 0 | 0.0 | 0.0 | 5.64 | 0.00 | 0.00 | 66 | 1021.1 |
| 20260506183812 | 43 | 0 | 0.0 | 0.0 | 5.64 | 0.00 | 0.00 | 64 | 1020.9 |
| 20260506183312 | 43 | 0 | 0.0 | 0.0 | 5.64 | 0.00 | 0.00 | 67 | 1020.9 |
| 20260506182812 | 43 | 0 | 0.0 | 0.0 | 5.64 | 0.00 | 0.00 | 66 | 1020.8 |
| 20260506182312 | 43 | 359 | 1.0 | 5.0 | 5.64 | 0.00 | 0.00 | 66 | 1020.8 |
| 20260506181812 | 43 | 359 | 0.0 | 5.0 | 5.64 | 0.00 | 0.00 | 66 | 1020.8 |
| 20260506181312 | 43 | 0 | 0.0 | 0.0 | 5.64 | 0.00 | 0.00 | 68 | 1020.8 |
| 20260506180813 | 43 | 0 | 0.0 | 0.0 | 5.64 | 0.00 | 0.00 | 68 | 1020.9 |
| 20260506180312 | 43 | 340 | 0.0 | 4.0 | 5.64 | 0.00 | 0.00 | 67 | 1021.0 |
| 20260506175814 | 43 | 340 | 1.0 | 5.0 | 5.64 | 0.00 | 0.00 | 72 | 1020.9 |
| 20260506175313 | 42 | 359 | 1.0 | 5.0 | 5.64 | 0.00 | 0.00 | 69 | 1020.8 |
| 20260506174812 | 42 | 0 | 0.0 | 0.0 | 5.64 | 0.00 | 0.00 | 67 | 1020.8 |
| 20260506174312 | 42 | 0 | 0.0 | 0.0 | 5.64 | 0.00 | 0.00 | 74 | 1021.0 |
| 20260506173812 | 42 | 0 | 0.0 | 0.0 | 5.64 | 0.00 | 0.00 | 72 | 1021.0 |
| 20260506173312 | 42 | 359 | 1.0 | 5.0 | 5.64 | 0.00 | 0.00 | 72 | 1020.9 |
| 20260506172812 | 42 | 330 | 0.0 | 2.0 | 5.64 | 0.00 | 0.00 | 70 | 1020.9 |
| 20260506171313 | 41 | 0 | 0.0 | 0.0 | 5.64 | 0.00 | 0.00 | 78 | 1021.0 |
| 20260506170812 | 40 | 0 | 0.0 | 0.0 | 5.64 | 0.00 | 0.00 | 76 | 1020.9 |
| 20260506170313 | 41 | 339 | 2.0 | 8.0 | 5.64 | 0.00 | 0.00 | 76 | 1020.8 |
| 20260506165813 | 40 | 359 | 0.0 | 3.0 | 5.64 | 0.00 | 0.00 | 74 | 1020.8 |
| 20260506165313 | 40 | 0 | 0.0 | 0.0 | 5.64 | 0.00 | 0.00 | 76 | 1020.8 |
| 20260506164813 | 40 | 212 | 0.0 | 2.0 | 5.64 | 0.00 | 0.00 | 74 | 1020.8 |
| 20260506164313 | 40 | 314 | 13.0 | 19.0 | 5.64 | 0.00 | 0.00 | 75 | 1020.7 |
| 20260506163813 | 40 | 312 | 15.0 | 20.0 | 5.64 | 0.00 | 0.00 | 78 | 1020.9 |
| 20260506163313 | 40 | 315 | 13.0 | 21.0 | 5.64 | 0.00 | 0.00 | 78 | 1020.9 |
| 20260506162814 | 40 | 235 | 15.0 | 20.0 | 5.64 | 0.00 | 0.00 | 75 | 1020.6 |
| 20260506162313 | 41 | 0 | 0.0 | 0.0 | 5.64 | 0.00 | 0.00 | 76 | 1020.6 |
| 20260506161813 | 41 | 211 | 0.0 | 1.0 | 5.64 | 0.00 | 0.00 | 76 | 1020.3 |
| 20260506161313 | 41 | 49 | 2.0 | 7.0 | 5.64 | 0.00 | 0.00 | 81 | 1020.4 |
| 20260506160813 | 41 | 359 | 2.0 | 3.0 | 5.64 | 0.00 | 0.00 | 81 | 1020.3 |
| 20260506160313 | 41 | 0 | 0.0 | 0.0 | 5.64 | 0.00 | 0.00 | 84 | 1020.3 |
| 20260506155813 | 41 | 359 | 0.0 | 2.0 | 5.64 | 0.00 | 0.00 | 85 | 1020.3 |
| 20260506155313 | 40 | 338 | 1.0 | 6.0 | 5.64 | 0.00 | 0.00 | 85 | 1020.3 |
| 20260506154813 | 41 | 338 | 0.0 | 3.0 | 5.64 | 0.00 | 0.00 | 86 | 1020.3 |
| 20260506154314 | 41 | 0 | 0.0 | 0.0 | 5.64 | 0.00 | 0.00 | 87 | 1020.2 |
| 20260506153813 | 41 | 204 | 1.0 | 4.0 | 5.64 | 0.00 | 0.00 | 90 | 1020.3 |
| 20260506153313 | 41 | 0 | 0.0 | 0.0 | 5.64 | 0.00 | 0.00 | 91 | 1020.1 |
| 20260506152813 | 41 | 0 | 0.0 | 0.0 | 5.64 | 0.00 | 0.00 | 92 | 1020.0 |
| 20260506152314 | 41 | 0 | 0.0 | 0.0 | 5.64 | 0.00 | 0.00 | 92 | 1019.6 |
| 20260506151813 | 41 | 0 | 0.0 | 0.0 | 5.64 | 0.00 | 0.00 | 93 | 1019.6 |
| 20260506151313 | 41 | 0 | 0.0 | 0.0 | 5.64 | 0.00 | 0.00 | 95 | 1019.5 |
| 20260506150813 | 41 | 0 | 0.0 | 0.0 | 5.64 | 0.00 | 0.00 | 96 | 1019.8 |
| 20260506150313 | 41 | 0 | 0.0 | 0.0 | 5.64 | 0.00 | 0.00 | 96 | 1019.3 |
| 20260506145813 | 41 | 0 | 0.0 | 0.0 | 5.64 | 0.00 | 0.00 | 96 | 1019.1 |
| 20260506145313 | 42 | 0 | 0.0 | 0.0 | 5.64 | 0.00 | 0.00 | 96 | 1019.4 |
| 20260506144813 | 42 | 0 | 0.0 | 0.0 | 5.64 | 0.00 | 0.00 | 98 | 1019.5 |
| 20260506144313 | 42 | 0 | 0.0 | 0.0 | 5.64 | 0.00 | 0.00 | 99 | 1019.4 |
| 20260506143815 | 42 | 0 | 0.0 | 0.0 | 5.64 | 0.00 | 0.00 | 100 | 1019.1 |
| 20260506143313 | 42 | 0 | 0.0 | 0.0 | 5.64 | 0.00 | 0.00 | 100 | 1019.0 |
| 20260506142813 | 42 | 204 | 4.0 | 10.0 | 5.64 | 0.00 | 0.00 | 100 | 1019.1 |
| 20260506142313 | 41 | 0 | 0.0 | 0.0 | 5.64 | 0.00 | 0.00 | 100 | 1019.1 |
| 20260506141813 | 41 | 0 | 0.0 | 0.0 | 5.64 | 0.00 | 0.00 | 100 | 1018.9 |
| 20260506141313 | 41 | 0 | 0.0 | 0.0 | 5.64 | 0.00 | 0.00 | 100 | 1019.2 |
| 20260506140813 | 41 | 307 | 0.0 | 5.0 | 5.64 | 0.00 | 0.00 | 100 | 1018.9 |
| 20260506140313 | 41 | 0 | 0.0 | 0.0 | 5.64 | 0.00 | 0.00 | 100 | 1019.3 |
| 20260506135813 | 40 | 0 | 0.0 | 0.0 | 5.64 | 0.00 | 0.00 | 100 | 1019.4 |
| 20260506135313 | 41 | 0 | 0.0 | 0.0 | 5.64 | 0.00 | 0.00 | 100 | 1019.3 |
| 20260506134813 | 41 | 307 | 0.0 | 3.0 | 5.64 | 0.00 | 0.00 | 100 | 1019.4 |
| 20260506134609 | 41 | 0 | 0.0 | 0.0 | 5.64 | 0.00 | 0.00 | 100 | 1019.4 |
| 20260506134506 | 41 | 0 | 0.0 | 0.0 | 5.64 | 0.00 | 0.00 | 100 | 1019.4 |
| 20260506134347 | 41 | 0 | 0.0 | 0.0 | 5.64 | 0.00 | 0.00 | 100 | 1019.4 |
| 20260506134313 | 41 | 0 | 0.0 | 0.0 | 5.64 | 0.00 | 0.00 | 100 | 1019.4 |
| 20260506133813 | 41 | 0 | 0.0 | 0.0 | 5.64 | 0.00 | 0.00 | 100 | 1019.3 |
| 20260506133313 | 40 | 0 | 0.0 | 0.0 | 5.64 | 0.00 | 0.00 | 100 | 1019.1 |
| 20260506132813 | 41 | 0 | 0.0 | 0.0 | 5.64 | 0.00 | 0.00 | 100 | 1019.0 |
| 20260506132314 | 41 | 0 | 0.0 | 0.0 | 5.64 | 0.00 | 0.00 | 100 | 1019.0 |
| 20260506131814 | 41 | 0 | 0.0 | 0.0 | 5.64 | 0.00 | 0.00 | 81 | 1018.9 |
| 20260506131507 | 41 | 0 | 0.0 | 0.0 | 5.64 | 0.00 | 0.00 | 100 | 1019.1 |
| 20260506131345 | 41 | 0 | 0.0 | 0.0 | 5.64 | 0.00 | 0.00 | 100 | 1019.1 |
| 20260506131313 | 41 | 0 | 0.0 | 0.0 | 5.64 | 0.00 | 0.00 | 100 | 1019.1 |
| 20260506130813 | 40 | 0 | 0.0 | 0.0 | 5.64 | 0.00 | 0.00 | 100 | 1019.1 |
| 20260506130313 | 40 | 0 | 0.0 | 0.0 | 5.64 | 0.00 | 0.00 | 100 | 1019.0 |
| 20260506125814 | 40 | 0 | 0.0 | 0.0 | 5.64 | 0.00 | 0.00 | 100 | 1018.8 |
| 20260506125313 | 40 | 0 | 0.0 | 0.0 | 5.64 | 0.00 | 0.00 | 100 | 1019.0 |
| 20260506124813 | 40 | 0 | 0.0 | 0.0 | 5.64 | 0.00 | 0.00 | 100 | 1019.1 |
| 20260506124313 | 40 | 0 | 0.0 | 0.0 | 5.64 | 0.00 | 0.00 | 100 | 1019.2 |
| 20260506123813 | 40 | 0 | 0.0 | 0.0 | 5.64 | 0.00 | 0.00 | 100 | 1019.1 |
| 20260506123313 | 40 | 0 | 0.0 | 0.0 | 5.64 | 0.00 | 0.00 | 100 | 1018.8 |
| 20260506122814 | 40 | 0 | 0.0 | 0.0 | 5.64 | 0.00 | 0.00 | 100 | 1019.0 |
| 20260506122313 | 40 | 0 | 0.0 | 0.0 | 5.64 | 0.00 | 0.00 | 100 | 1018.9 |
| 20260506121813 | 40 | 0 | 0.0 | 0.0 | 5.64 | 0.00 | 0.00 | 100 | 1018.9 |
| 20260506121314 | 40 | 0 | 0.0 | 0.0 | 5.64 | 0.00 | 0.00 | 100 | 1019.0 |
| 20260506120821 | 39 | 0 | 0.0 | 0.0 | 5.64 | 0.00 | 0.00 | 100 | 1018.9 |
| 20260506120313 | 39 | 0 | 0.0 | 0.0 | 5.64 | 0.00 | 0.00 | 100 | 1018.6 |
| 20260506115813 | 40 | 0 | 0.0 | 0.0 | 5.64 | 0.00 | 0.00 | 100 | 1018.7 |
| 20260506115313 | 40 | 0 | 0.0 | 0.0 | 5.64 | 0.00 | 0.00 | 100 | 1018.7 |
| 20260506114813 | 40 | 0 | 0.0 | 0.0 | 5.64 | 0.00 | 0.00 | 100 | 1018.4 |
| 20260506114313 | 40 | 0 | 0.0 | 0.0 | 5.64 | 0.00 | 0.00 | 100 | 1018.1 |
| 20260506113813 | 40 | 0 | 0.0 | 0.0 | 5.64 | 0.00 | 0.00 | 100 | 1017.9 |
| 20260506113313 | 40 | 0 | 0.0 | 0.0 | 5.64 | 0.00 | 0.00 | 100 | 1017.9 |
| 20260506112813 | 40 | 0 | 0.0 | 0.0 | 5.64 | 0.00 | 0.00 | 100 | 1018.1 |
| 20260506112314 | 40 | 0 | 0.0 | 0.0 | 5.64 | 0.00 | 0.00 | 100 | 1018.2 |
| 20260506111813 | 40 | 0 | 0.0 | 0.0 | 5.64 | 0.00 | 0.00 | 100 | 1018.0 |
| 20260506111313 | 39 | 0 | 0.0 | 0.0 | 5.64 | 0.00 | 0.00 | 100 | 1017.9 |
| 20260506110814 | 39 | 0 | 0.0 | 0.0 | 5.64 | 0.00 | 0.00 | 100 | 1017.9 |
| 20260506110313 | 40 | 0 | 0.0 | 0.0 | 5.64 | 0.00 | 0.00 | 100 | 1018.0 |
| 20260506105814 | 40 | 0 | 0.0 | 0.0 | 5.64 | 0.00 | 0.00 | 100 | 1017.9 |
| 20260506105314 | 40 | 0 | 0.0 | 0.0 | 5.64 | 0.00 | 0.00 | 100 | 1017.7 |
| 20260506104814 | 39 | 0 | 0.0 | 0.0 | 5.64 | 0.00 | 0.00 | 100 | 1017.4 |
| 20260506104313 | 39 | 0 | 0.0 | 0.0 | 5.64 | 0.00 | 0.00 | 100 | 1017.3 |
| 20260506103814 | 39 | 0 | 0.0 | 0.0 | 5.64 | 0.00 | 0.00 | 100 | 1017.3 |
| 20260506103313 | 39 | 0 | 0.0 | 0.0 | 5.64 | 0.00 | 0.00 | 100 | 1017.5 |
| 20260506102813 | 40 | 0 | 0.0 | 0.0 | 5.64 | 0.00 | 0.00 | 100 | 1017.5 |
| 20260506102313 | 40 | 0 | 0.0 | 0.0 | 5.64 | 0.00 | 0.00 | 100 | 1017.4 |
| 20260506101813 | 40 | 0 | 0.0 | 0.0 | 5.64 | 0.00 | 0.00 | 100 | 1017.3 |
| 20260506101313 | 41 | 0 | 0.0 | 0.0 | 5.64 | 0.00 | 0.00 | 100 | 1017.6 |
| 20260506100814 | 41 | 0 | 0.0 | 0.0 | 5.64 | 0.00 | 0.00 | 100 | 1017.7 |
| 20260506100314 | 41 | 0 | 0.0 | 0.0 | 5.64 | 0.00 | 0.00 | 100 | 1017.5 |
| 20260506095813 | 41 | 0 | 0.0 | 0.0 | 5.64 | 0.00 | 0.00 | 100 | 1016.9 |
| 20260506095317 | 41 | 0 | 0.0 | 0.0 | 5.64 | 0.00 | 0.00 | 100 | 1016.6 |
| 20260506094813 | 41 | 0 | 0.0 | 0.0 | 5.64 | 0.00 | 0.00 | 100 | 1016.6 |
| 20260506094314 | 41 | 0 | 0.0 | 0.0 | 5.64 | 0.00 | 0.00 | 100 | 1016.8 |
| 20260506093813 | 41 | 0 | 0.0 | 0.0 | 5.64 | 0.00 | 0.00 | 100 | 1016.9 |
| 20260506093314 | 42 | 0 | 0.0 | 0.0 | 5.64 | 0.00 | 0.00 | 100 | 1016.9 |
| 20260506092814 | 42 | 0 | 0.0 | 0.0 | 5.64 | 0.00 | 0.00 | 100 | 1017.1 |
| 20260506092314 | 42 | 0 | 0.0 | 0.0 | 5.64 | 0.00 | 0.00 | 100 | 1017.1 |
| 20260506091815 | 42 | 0 | 0.0 | 0.0 | 5.64 | 0.00 | 0.00 | 100 | 1017.5 |
| 20260506091314 | 42 | 0 | 0.0 | 0.0 | 5.64 | 0.00 | 0.00 | 100 | 1017.8 |
| 20260506090815 | 42 | 0 | 0.0 | 0.0 | 5.64 | 0.00 | 0.00 | 100 | 1017.7 |
| 20260506090314 | 42 | 0 | 0.0 | 0.0 | 5.64 | 0.00 | 0.00 | 100 | 1017.6 |
| 20260506085814 | 42 | 0 | 0.0 | 0.0 | 5.64 | 0.00 | 0.00 | 100 | 1017.6 |
| 20260506085314 | 42 | 0 | 0.0 | 0.0 | 5.64 | 0.00 | 0.00 | 100 | 1017.6 |
| 20260506084814 | 42 | 0 | 0.0 | 0.0 | 5.64 | 0.00 | 0.00 | 100 | 1017.6 |
| 20260506084314 | 42 | 0 | 0.0 | 0.0 | 5.64 | 0.00 | 0.00 | 100 | 1017.4 |
| 20260506083814 | 42 | 0 | 0.0 | 0.0 | 5.64 | 0.00 | 0.00 | 100 | 1017.1 |
| 20260506083315 | 42 | 0 | 0.0 | 0.0 | 5.64 | 0.00 | 0.00 | 100 | 1017.2 |
| 20260506082814 | 42 | 0 | 0.0 | 0.0 | 5.64 | 0.00 | 0.00 | 100 | 1017.5 |
| 20260506082314 | 42 | 0 | 0.0 | 0.0 | 5.64 | 0.00 | 0.00 | 100 | 1017.7 |
| 20260506081815 | 42 | 0 | 0.0 | 0.0 | 5.64 | 0.00 | 0.00 | 99 | 1017.8 |
| 20260506081314 | 42 | 0 | 0.0 | 0.0 | 5.64 | 0.00 | 0.00 | 99 | 1017.6 |
| 20260506080814 | 42 | 0 | 0.0 | 0.0 | 5.64 | 0.00 | 0.00 | 99 | 1017.6 |
| 20260506080314 | 42 | 0 | 0.0 | 0.0 | 5.64 | 0.00 | 0.00 | 99 | 1017.7 |
| 20260506073314 | 42 | 0 | 0.0 | 0.0 | 5.64 | 0.00 | 0.00 | 99 | 1017.9 |
| 20260506072814 | 42 | 0 | 0.0 | 0.0 | 5.64 | 0.00 | 0.00 | 99 | 1017.5 |
| 20260506072314 | 42 | 0 | 0.0 | 0.0 | 5.64 | 0.00 | 0.00 | 99 | 1017.5 |
| 20260506071814 | 42 | 0 | 0.0 | 0.0 | 5.64 | 0.00 | 0.00 | 99 | 1017.4 |
| 20260506071314 | 42 | 0 | 0.0 | 0.0 | 5.64 | 0.00 | 0.00 | 99 | 1017.2 |
| 20260506070814 | 42 | 0 | 0.0 | 0.0 | 5.64 | 0.00 | 0.00 | 99 | 1016.8 |
| 20260506070314 | 42 | 0 | 0.0 | 0.0 | 5.64 | 0.00 | 0.00 | 99 | 1016.7 |
| 20260506062314 | 43 | 0 | 0.0 | 0.0 | 5.64 | 0.00 | 0.00 | 100 | 1017.2 |
| 20260506061814 | 43 | 0 | 0.0 | 0.0 | 5.64 | 0.00 | 0.00 | 100 | 1017.3 |
| 20260506061314 | 43 | 0 | 0.0 | 0.0 | 5.64 | 0.00 | 0.00 | 100 | 1017.1 |
| 20260506060814 | 43 | 0 | 0.0 | 0.0 | 5.64 | 0.00 | 0.00 | 100 | 1017.2 |
| 20260506060314 | 43 | 0 | 0.0 | 0.0 | 5.64 | 0.00 | 0.00 | 100 | 1016.8 |
| 20260506051314 | 42 | 0 | 0.0 | 0.0 | 5.64 | 0.00 | 0.00 | 99 | 1017.2 |
| 20260506050815 | 41 | 0 | 0.0 | 0.0 | 5.64 | 0.00 | 0.00 | 98 | 1016.9 |
| 20260506050314 | 41 | 0 | 0.0 | 0.0 | 5.64 | 0.00 | 0.00 | 96 | 1017.1 |
| 20260506044815 | 41 | 0 | 0.0 | 0.0 | 5.64 | 0.00 | 0.00 | 91 | 1017.5 |
| 20260506044314 | 41 | 0 | 0.0 | 0.0 | 5.64 | 0.00 | 0.00 | 91 | 1017.5 |
| 20260506043814 | 41 | 0 | 0.0 | 0.0 | 5.64 | 0.00 | 0.00 | 93 | 1017.5 |
| 20260506043314 | 41 | 0 | 0.0 | 0.0 | 5.64 | 0.00 | 0.00 | 96 | 1017.5 |
| 20260506042814 | 41 | 0 | 0.0 | 0.0 | 5.64 | 0.00 | 0.00 | 97 | 1017.4 |
| 20260506042314 | 41 | 0 | 0.0 | 0.0 | 5.64 | 0.00 | 0.00 | 98 | 1017.5 |
| 20260506041814 | 41 | 0 | 0.0 | 0.0 | 5.64 | 0.00 | 0.00 | 96 | 1017.7 |
| 20260506041314 | 41 | 0 | 0.0 | 0.0 | 5.64 | 0.00 | 0.00 | 95 | 1017.4 |
| 20260506040814 | 41 | 0 | 0.0 | 0.0 | 5.64 | 0.00 | 0.00 | 95 | 1017.4 |
| 20260506040314 | 41 | 0 | 0.0 | 0.0 | 5.64 | 0.00 | 0.00 | 95 | 1017.5 |
| 20260506035814 | 41 | 0 | 0.0 | 0.0 | 5.64 | 0.00 | 0.00 | 95 | 1017.6 |
| 20260506035315 | 41 | 0 | 0.0 | 0.0 | 5.64 | 0.00 | 0.00 | 95 | 1017.7 |
| 20260506034814 | 41 | 0 | 0.0 | 0.0 | 5.64 | 0.00 | 0.00 | 95 | 1017.7 |
| 20260506034314 | 41 | 0 | 0.0 | 0.0 | 5.64 | 0.00 | 0.00 | 94 | 1017.8 |
| 20260506033815 | 41 | 0 | 0.0 | 0.0 | 5.64 | 0.00 | 0.00 | 94 | 1017.7 |
| 20260506033314 | 41 | 0 | 0.0 | 0.0 | 5.64 | 0.00 | 0.00 | 94 | 1017.7 |
| 20260506032814 | 41 | 0 | 0.0 | 0.0 | 5.64 | 0.00 | 0.00 | 92 | 1017.4 |
| 20260506032314 | 41 | 0 | 0.0 | 0.0 | 5.64 | 0.00 | 0.00 | 93 | 1017.6 |
| 20260506031815 | 41 | 0 | 0.0 | 0.0 | 5.64 | 0.00 | 0.00 | 93 | 1017.6 |
| 20260506031314 | 41 | 0 | 0.0 | 0.0 | 5.64 | 0.00 | 0.00 | 92 | 1017.3 |
| 20260506030817 | 41 | 0 | 0.0 | 0.0 | 5.64 | 0.00 | 0.00 | 92 | 1017.2 |
| 20260506030314 | 41 | 0 | 0.0 | 0.0 | 5.64 | 0.00 | 0.00 | 92 | 1017.3 |
| 20260506025815 | 41 | 0 | 0.0 | 0.0 | 5.64 | 0.00 | 0.00 | 92 | 1017.1 |
| 20260506025315 | 41 | 0 | 0.0 | 0.0 | 5.64 | 0.00 | 0.00 | 93 | 1017.2 |
| 20260506024815 | 41 | 0 | 0.0 | 0.0 | 5.64 | 0.00 | 0.00 | 93 | 1017.3 |
| 20260506024314 | 42 | 0 | 0.0 | 0.0 | 5.64 | 0.00 | 0.00 | 93 | 1017.2 |
| 20260506023814 | 42 | 0 | 0.0 | 0.0 | 5.64 | 0.00 | 0.00 | 93 | 1017.2 |
| 20260506023315 | 42 | 0 | 0.0 | 0.0 | 5.64 | 0.00 | 0.00 | 93 | 1017.4 |
| 20260506022815 | 41 | 0 | 0.0 | 0.0 | 5.64 | 0.00 | 0.00 | 92 | 1017.5 |
| 20260506022315 | 41 | 0 | 0.0 | 0.0 | 5.64 | 0.00 | 0.00 | 92 | 1017.2 |
| 20260506021815 | 41 | 0 | 0.0 | 0.0 | 5.64 | 0.00 | 0.00 | 92 | 1017.5 |
| 20260506021315 | 41 | 0 | 0.0 | 0.0 | 5.64 | 0.00 | 0.00 | 93 | 1017.5 |
| 20260506020815 | 41 | 0 | 0.0 | 0.0 | 5.64 | 0.00 | 0.00 | 92 | 1017.3 |
| 20260506020316 | 41 | 0 | 0.0 | 0.0 | 5.64 | 0.00 | 0.00 | 92 | 1017.5 |
| 20260506015815 | 41 | 0 | 0.0 | 0.0 | 5.64 | 0.00 | 0.00 | 92 | 1017.5 |
| 20260506015316 | 41 | 0 | 0.0 | 0.0 | 5.64 | 0.00 | 0.00 | 92 | 1017.2 |
| 20260506014815 | 41 | 0 | 0.0 | 0.0 | 5.64 | 0.00 | 0.00 | 92 | 1017.4 |
| 20260506014316 | 41 | 0 | 0.0 | 0.0 | 5.64 | 0.00 | 0.00 | 92 | 1017.3 |
| 20260506013815 | 41 | 0 | 0.0 | 0.0 | 5.64 | 0.00 | 0.00 | 92 | 1017.3 |
| 20260506013315 | 41 | 0 | 0.0 | 0.0 | 5.64 | 0.00 | 0.00 | 91 | 1017.2 |
| 20260506012815 | 41 | 0 | 0.0 | 0.0 | 5.64 | 0.00 | 0.00 | 91 | 1017.1 |
| 20260506012317 | 42 | 0 | 0.0 | 0.0 | 5.64 | 0.00 | 0.00 | 91 | 1016.9 |
| 20260506011815 | 42 | 0 | 0.0 | 0.0 | 5.64 | 0.00 | 0.00 | 90 | 1016.9 |
| 20260506011315 | 42 | 0 | 0.0 | 0.0 | 5.64 | 0.00 | 0.00 | 89 | 1016.9 |
| 20260506010815 | 42 | 0 | 0.0 | 0.0 | 5.64 | 0.00 | 0.00 | 87 | 1016.8 |
| 20260506010315 | 42 | 0 | 0.0 | 0.0 | 5.64 | 0.00 | 0.00 | 88 | 1016.8 |
| 20260506005815 | 42 | 0 | 0.0 | 0.0 | 5.64 | 0.00 | 0.00 | 88 | 1016.8 |
| 20260506005315 | 42 | 0 | 0.0 | 0.0 | 5.64 | 0.00 | 0.00 | 88 | 1016.5 |
| 20260506004815 | 42 | 0 | 0.0 | 0.0 | 5.64 | 0.00 | 0.00 | 89 | 1016.4 |
| 20260506004315 | 42 | 0 | 0.0 | 0.0 | 5.64 | 0.00 | 0.00 | 89 | 1016.4 |
| 20260506003815 | 42 | 0 | 0.0 | 0.0 | 5.64 | 0.00 | 0.00 | 87 | 1016.1 |
| 20260506003315 | 42 | 0 | 0.0 | 0.0 | 5.64 | 0.00 | 0.00 | 88 | 1016.1 |
| 20260506002815 | 42 | 0 | 0.0 | 0.0 | 5.64 | 0.00 | 0.00 | 87 | 1016.1 |
| 20260506002315 | 42 | 0 | 0.0 | 0.0 | 5.64 | 0.00 | 0.00 | 87 | 1016.1 |
| 20260506001815 | 42 | 0 | 0.0 | 0.0 | 5.64 | 0.00 | 0.00 | 87 | 1016.0 |
| 20260506001315 | 42 | 0 | 0.0 | 0.0 | 5.64 | 0.00 | 0.00 | 86 | 1016.0 |
| 20260506000815 | 42 | 0 | 0.0 | 0.0 | 5.64 | 0.00 | 0.00 | 87 | 1016.0 |
| 20260506000316 | 42 | 0 | 0.0 | 0.0 | 5.64 | 0.00 | 0.00 | 87 | 1015.9 |
| 20260505235815 | 42 | 0 | 0.0 | 0.0 | 5.64 | 0.00 | 0.00 | 87 | 1016.0 |
| 20260505235316 | 42 | 0 | 0.0 | 0.0 | 5.64 | 0.00 | 0.00 | 87 | 1016.1 |
| 20260505234815 | 42 | 0 | 0.0 | 0.0 | 5.64 | 0.00 | 0.00 | 87 | 1015.9 |
| 20260505234315 | 42 | 0 | 0.0 | 0.0 | 5.64 | 0.00 | 0.00 | 87 | 1015.9 |
| 20260505233815 | 42 | 0 | 0.0 | 0.0 | 5.64 | 0.00 | 0.00 | 88 | 1016.0 |
| 20260505233315 | 42 | 0 | 0.0 | 0.0 | 5.64 | 0.00 | 0.00 | 87 | 1016.0 |
| 20260505232816 | 42 | 0 | 0.0 | 0.0 | 5.64 | 0.00 | 0.00 | 88 | 1015.9 |
| 20260505232315 | 42 | 0 | 0.0 | 0.0 | 5.64 | 0.00 | 0.00 | 87 | 1016.0 |
| 20260505231815 | 42 | 0 | 0.0 | 0.0 | 5.64 | 0.00 | 0.00 | 87 | 1015.8 |